OPS 4988 (GREB 6)

Satellite information

Favourite Embed

Satellite Type and Status

PAYLOADIN ORBIT

Key statistics

Satellite OPS 4988 (GREB 6) at a glance.

Uptime

22034

Days in orbit

Revolutions

≈ 14.0

Per day

Orbit

LEO

Low Earth Orbit

Inclination

70.1

Latest

Satellite identification and parameters

Extended collection of information and parameters for OPS 4988 (GREB 6).

Object identification

Identified? True

Debris? False

Object name: OPS 4988 (GREB 6)

International designator: 1965-016A

Object number (NORAD): 1271

Object ID (CCSDS): 1271

Country: UNITED STATES OF AMERICA (US)

Current information (Y/N): Y

RCS size: MEDIUM

Orbital parameters

Period: 103.109 minutes

Inclination: 70.0778 deg

SMA: 7283.804 km

Apoapsis: 920.401 km

Periapsis: 890.936 km

RAAN: 177.3589 deg

Eccentricy: 0.0020226

Argument of periapsis: 173.2049 deg

Mean anomaly: 295.8452 deg

Mean motion: 13.96578712 rev/day

Mean motion (dot): 0.0000006 rev/day2

B* drag term: 0.000081298 1/REarth

Two-line elements (TLE)

Creation date: July 5, 2025, 5:45 p.m.

Reference frame: TEME

Reference center: EARTH

Epoch: July 5, 2025, 10:08 a.m. UTC

TLE line 0: 0 OPS 4988 (GREB 6)

TLE line 1: 1 01271U 65016A 25186.42226225 .00000060 00000-0 81298-4 0 9994

TLE line 2: 2 01271 70.0778 177.3589 0020226 173.2049 295.8452 13.96578712 70393

Live tracking on map

Real-time ground track for satellite OPS 4988 (GREB 6).

In-orbit conjunctions

There are no conjunctions computed for OPS 4988 (GREB 6), at the moment. Check back to stay up to date, as we update our databases every day.

Go to all conjunctions

Associated space launch

Poppy was the follow-on ELINT system, which succeeded the Grab ELINT satellite system.

OPS 4988 (GREB 6) was lifted into orbit during the mission ‘Thor SLV-2 Agena D | Poppy 6A,B,C,D’, on board a Thor SLV-2 Agena D space rocket.

The launch took place on March 9, 1965, 6:29 p.m. from Space Launch Complex 2W.

For more information about the launch, click the button.

Launch to space Thor SLV-2 Agena D | Poppy 6A,B,C,D
Thor SLV-2 Agena D | Poppy 6A,B,C,D

Agency: N/A

Status: Launch Successful

Launch date: March 9, 1965, 6:29 p.m. UTC

Rocket: Thor SLV-2 Agena D

Launch pad: Space Launch Complex 2W

Location: Vandenberg SFB, CA, USA

...

Latest news about this satellite

There are no fresh news available about this satellite. Check back as we update our databases every day.


Newsletter sign-up

Weekly statistics, charts and insights to help you stay on top of the space industry.